FW2126 Weather Reports


Display with metric or nautical units.
time (UTC)temp
F
wind
direction
speed
MPH
gust
MPH
rain 1hr
in
rain 24hr
in
rain mn
in
humidity
%
barometer
mb
20260504001537 77 215 18.0 23.0 0.00 0.00 0.00 22 1007.7
20260504000037 78 241 18.0 29.0 0.00 0.00 0.00 22 1007.8
20260503234541 78 223 18.0 26.0 0.00 0.00 0.00 20 1008.0
20260503233034 78 220 16.0 27.0 0.00 0.00 0.00 20 1008.0
20260503231535 79 219 17.0 26.0 0.00 0.00 0.00 19 1007.9
20260503230038 79 215 17.0 24.0 0.00 0.00 0.00 20 1008.1
20260503224532 78 243 15.0 23.0 0.00 0.00 0.00 21 1008.1
20260503223031 79 226 13.0 29.0 0.00 0.00 0.00 22 1008.2
20260503221528 79 232 16.0 30.0 0.00 0.00 0.00 22 1008.4
20260503220028 79 188 12.0 26.0 0.00 0.00 0.00 22 1008.7
20260503214527 79 205 17.0 27.0 0.00 0.00 0.00 22 1008.9
20260503213123 79 238 18.0 29.0 0.00 0.00 0.00 23 1009.4
20260503211522 79 241 21.0 32.0 0.00 0.00 0.00 23 1009.8
20260503210025 78 24 20.0 24.0 0.00 0.00 0.00 23 1010.1
20260503204516 78 21 19.0 33.0 0.00 0.00 0.00 22 1010.5
20260503203019 78 21 14.0 40.0 0.00 0.00 0.00 22 1010.5
20260503201514 78 26 18.0 30.0 0.00 0.00 0.00 24 1011.3
20260503200011 78 20 23.0 30.0 0.00 0.00 0.00 24 1011.4
20260503194513 77 21 18.0 29.0 0.00 0.00 0.00 24 1011.8
20260503193009 76 25 23.0 30.0 0.00 0.00 0.00 24 1012.2
20260503191507 77 23 23.0 36.0 0.00 0.00 0.00 22 1012.2
20260503190007 77 25 18.0 28.0 0.00 0.00 0.00 25 1012.6
20260503184507 76 22 18.0 28.0 0.00 0.00 0.00 26 1012.9
20260503183115 76 22 22.0 27.0 0.00 0.00 0.00 27 1013.1
20260503181601 74 22 20.0 30.0 0.00 0.00 0.00 29 1013.5
20260503180055 74 21 17.0 29.0 0.00 0.00 0.00 29 1013.7
20260503174553 73 21 18.0 29.0 0.00 0.00 0.00 32 1013.9
20260503173112 72 23 19.0 27.0 0.00 0.00 0.00 33 1014.5
20260503171549 71 360 17.0 28.0 0.00 0.00 0.00 38 1014.8
20260503120106 41 226 6.0 8.0 0.00 0.00 0.00 85 1016.9
20260503081519 45 250 7.0 9.0 0.00 0.00 0.00 68 1017.7
20260503071514 47 252 9.0 10.0 0.00 0.00 0.00 61 1018.2
20260503054503 46 244 4.0 7.0 0.00 0.00 0.00 62 1018.4
20260503053058 47 244 4.0 7.0 0.00 0.00 0.00 60 1018.3
20260503051555 49 247 6.0 9.0 0.00 0.00 0.00 56 1018.4
20260503050050 51 256 8.0 10.0 0.00 0.00 0.00 54 1018.5
20260503044549 50 250 8.0 10.0 0.00 0.00 0.00 55 1018.7
20260503043049 51 247 7.0 9.0 0.00 0.00 0.00 53 1018.7
20260503041600 51 245 6.0 9.0 0.00 0.00 0.00 53 1018.6
20260503040055 51 234 6.0 11.0 0.00 0.00 0.00 53 1018.6
20260503034603 52 360 7.0 9.0 0.00 0.00 0.00 52 1018.7
20260503033047 53 231 7.0 8.0 0.00 0.00 0.00 51 1018.7
20260503031545 52 360 6.0 9.0 0.00 0.00 0.00 51 1018.6
20260503030053 55 213 6.0 9.0 0.00 0.00 0.00 47 1018.5
20260503024546 55 214 6.0 8.0 0.00 0.00 0.00 46 1018.2
20260503023043 56 360 5.0 9.0 0.00 0.00 0.00 45 1018.2
20260503021545 57 360 6.0 8.0 0.00 0.00 0.00 42 1018.2
20260503020043 60 360 3.0 5.0 0.00 0.00 0.00 37 1018.0
20260503014547 63 360 4.0 8.0 0.00 0.00 0.00 33 1017.9
20260503013042 65 360 5.0 8.0 0.00 0.00 0.00 30 1017.9
20260503011541 68 17 2.0 4.0 0.00 0.00 0.00 27 1017.8
20260503010044 69 17 4.0 6.0 0.00 0.00 0.00 27 1017.9
20260503004540 70 18 2.0 6.0 0.00 0.00 0.00 26 1017.9
20260503003038 70 18 8.0 13.0 0.00 0.00 0.00 24 1018.0